LIPZ Weather Reports


time (UTC)temp
C
wind
direction
speed
KPH
gust
KPH
rain 1hr
cm
rain 24hr
cm
rain mn
cm
humidity
%
barometer
mb
20260507100005 17 200 12.9 0.0 0.00 0.00 0.00 88 1013.0
20260507094504 17 160 8.0 0.0 0.00 0.00 0.00 88 1013.0
20260507093004 17 160 8.0 0.0 0.00 0.00 0.00 88 1013.0
20260507090005 17 150 9.7 0.0 0.00 0.00 0.00 88 1013.0
20260507083004 17 90 8.0 0.0 0.00 0.00 0.00 88 1013.0
20260507081504 17 0 4.8 0.0 0.00 0.00 0.00 88 1012.0
20260507080005 17 0 4.8 0.0 0.00 0.00 0.00 88 1012.0
20260507074504 15 10 9.7 0.0 0.00 0.00 0.00 100 1012.0
20260507073004 15 10 9.7 0.0 0.00 0.00 0.00 100 1012.0
20260507071503 15 350 9.7 0.0 0.00 0.00 0.00 100 1012.0
20260507070009 15 350 9.7 0.0 0.00 0.00 0.00 100 1012.0
20260507064504 13 330 9.7 0.0 0.00 0.00 0.00 100 1012.0
20260507060004 13 340 8.0 0.0 0.00 0.00 0.00 100 1012.0
20260507051504 13 350 9.7 0.0 0.00 0.00 0.00 100 1011.0
20260507050005 13 350 9.7 0.0 0.00 0.00 0.00 100 1011.0
20260507044504 13 10 11.3 0.0 0.00 0.00 0.00 100 1011.0
20260507034504 13 350 9.7 0.0 0.00 0.00 0.00 100 1011.0
20260507030004 13 360 4.8 0.0 0.00 0.00 0.00 100 1011.0
20260507023005 12 0 3.2 0.0 0.00 0.00 0.00 100 1011.0
20260507021504 12 320 8.0 0.0 0.00 0.00 0.00 100 1011.0
20260507020004 12 320 8.0 0.0 0.00 0.00 0.00 100 1011.0
20260507014504 13 340 4.8 0.0 0.00 0.00 0.00 93 1011.0
20260507013005 13 340 4.8 0.0 0.00 0.00 0.00 93 1011.0
20260507010004 13 360 3.2 0.0 0.00 0.00 0.00 93 1011.0
20260507004504 13 320 4.8 0.0 0.00 0.00 0.00 100 1011.0
20260507003005 13 320 4.8 0.0 0.00 0.00 0.00 100 1011.0
20260507001503 13 60 3.2 0.0 0.00 0.00 0.00 100 1011.0
20260507000004 13 60 3.2 0.0 0.00 0.00 0.00 100 1011.0
20260506230004 13 0 3.2 0.0 0.00 0.00 0.00 100 1011.0
20260506224503 15 20 8.0 0.0 0.00 0.00 0.00 93 1010.0
20260506214504 16 0 3.2 0.0 0.00 0.00 0.00 93 1010.0
20260506211504 16 0 3.2 0.0 0.00 0.00 0.00 87 1010.0
20260506210005 16 0 3.2 0.0 0.00 0.00 0.00 87 1010.0
20260506204503 17 0 1.6 0.0 0.00 0.00 0.00 82 1010.0
20260506203004 17 0 1.6 0.0 0.00 0.00 0.00 82 1010.0
20260506201505 17 190 8.0 0.0 0.00 0.00 0.00 82 1010.0
20260506200005 17 190 8.0 0.0 0.00 0.00 0.00 82 1010.0
20260506194503 17 0 4.8 0.0 0.00 0.00 0.00 82 1009.0
20260506191504 17 190 4.8 0.0 0.00 0.00 0.00 88 1009.0
20260506184504 17 210 9.7 0.0 0.00 0.00 0.00 88 1009.0
20260506183005 17 210 9.7 0.0 0.00 0.00 0.00 88 1009.0
20260506181503 17 140 9.7 0.0 0.00 0.00 0.00 93 1009.0
20260506174504 17 120 4.8 0.0 0.00 0.00 0.00 93 1009.0
20260506173004 17 120 4.8 0.0 0.00 0.00 0.00 93 1009.0
20260506171503 17 170 8.0 0.0 0.00 0.00 0.00 88 1009.0
20260506164503 17 160 9.7 0.0 0.00 0.00 0.00 88 1009.0
20260506143005 17 120 14.5 0.0 0.00 0.00 0.00 88 1010.0
20260506141504 17 120 14.5 0.0 0.00 0.00 0.00 88 1010.0
20260506140005 17 120 14.5 0.0 0.00 0.00 0.00 88 1010.0
20260506131504 17 150 12.9 0.0 0.00 0.00 0.00 88 1010.0
20260506130004 17 150 12.9 0.0 0.00 0.00 0.00 88 1010.0
20260506124503 17 150 8.0 0.0 0.00 0.00 0.00 93 1011.0
20260506123005 17 140 8.0 0.0 0.00 0.00 0.00 93 1011.0
20260506114503 16 150 9.7 0.0 0.00 0.00 0.00 93 1011.0
20260506111504 16 150 8.0 0.0 0.00 0.00 0.00 93 1011.0
20260506110005 16 150 8.0 0.0 0.00 0.00 0.00 93 1011.0
20260506104504 17 160 4.8 0.0 0.00 0.00 0.00 88 1011.0
20260506101504 17 170 4.8 0.0 0.00 0.00 0.00 82 1011.0